• Join FlightAware (Why Join?)
  • Login
  • US Flag 
06:38AM EST


 

Airport Tracker/Info


-or-


 

Live Flight TrackerFlight Track Log ✈ N423AK ✈ 06-May-2012 ✈ KPHL - KABE

Flight Track Log - Related Links

Times and Time Zones

All times are in EDT time to prevent confusion due to time zone crossing. See the N423AK flight status page for this flight to view local times or setup timezone preferences in your user account.

Time Position Orientation Groundspeed Altitude Reporting Facility
EDT Latitude Longitude Course Direction KTS MPH feet Rate Location/Type
03:45PM 39.8833 -75.2000 61° Northeast 158 182 800  Level Philadelphia TRACON
03:46PM 39.8944 -75.1736 36° Northeast 184 212 2,500 1,740 Climbing FAA TRACON SMA TRACON (SMA)
03:46PM 39.9275 -75.1425 348° North 258 297 3,000 360 Climbing FAA TRACON SMA TRACON (SMA)
03:47PM 39.9769 -75.1564 349° North 263 303 3,000  Level FAA TRACON SMA TRACON (SMA)
03:48PM 40.0211 -75.1681 348° North 264 304 3,000  Level FAA TRACON SMA TRACON (SMA)
03:48PM 40.0686 -75.1808 349° North 256 295 3,000  Level FAA TRACON SMA TRACON (SMA)
03:49PM 40.1131 -75.1925 348° North 246 283 3,000  Level FAA TRACON SMA TRACON (SMA)
03:50PM 40.1578 -75.2050 348° North 252 290 3,000  Level FAA TRACON SMA TRACON (SMA)
03:50PM 40.2058 -75.2183 332° Northwest 256 295 3,000  Level FAA TRACON SMA TRACON (SMA)
03:51PM 40.2478 -75.2469 327° Northwest 256 295 3,000  Level FAA TRACON SMA TRACON (SMA)
03:52PM 40.2917 -75.2839 328° Northwest 260 299 3,000  Level FAA TRACON SMA TRACON (SMA)
03:52PM 40.3306 -75.3158 333° Northwest 259 298 3,000  Level FAA TRACON SMA TRACON (SMA)
03:53PM 40.3711 -75.3431 330° Northwest 269 310 3,000  Level FAA TRACON SMA TRACON (SMA)
03:54PM 40.4142 -75.3758 15° North 267 307 3,000  Level FAA TRACON SMA TRACON (SMA)
03:54PM 40.4567 -75.3611 23° Northeast 260 299 3,000  Level FAA TRACON SMA TRACON (SMA)
03:55PM 40.4997 -75.3375 48° Northeast 224 258 3,000  Level FAA TRACON SMA TRACON (SMA)
03:56PM 40.5272 -75.2978 40° Northeast 207 238 3,000 -120 Level FAA TRACON SMA TRACON (SMA)
03:56PM 40.5522 -75.2697 325° Northwest 205 236 2,900 -480 Descending FAA TRACON SMA TRACON (SMA)
03:57PM 40.5789 -75.2939 303° West 191 220 2,400 -360 Descending FAA TRACON SMA TRACON (SMA)
03:58PM 40.5961 -75.3292 303° West 163 188 2,300 -120 Descending FAA TRACON SMA TRACON (SMA)